Wetterdaten: Dienstag, 13.01.2015
Datum Zeit Temp. A. Feuchte A. Luftdruck Regen Wind Richtung Richtung Sonnenschein ET UV Solar Taupunkt Windchill Windben Empfang
13.01.2015 00:00 1,2 C 61 % 1023,1 hPa 0,0 l/m 0,0 km/h (0 Bft) W-SW 237 0 min 0,000 mm 0,0 UV-I 0 W/m -5,5 C 1,2 C 0,0 km/h (0 Bft) 0,00 %
13.01.2015 00:15 0,7 C 63 % 1023,1 hPa 0,0 l/m 0,0 km/h (0 Bft) SW 221 0 min 0,000 mm 0,0 UV-I 0 W/m -5,5 C 0,7 C 0,0 km/h (0 Bft) 0,00 %
13.01.2015 00:30 0,5 C 64 % 1023,2 hPa 0,0 l/m 0,4 km/h (0 Bft) W-SW 251 0 min 0,000 mm 0,0 UV-I 0 W/m -5,5 C 0,5 C 4,0 km/h (1 Bft) 0,00 %
13.01.2015 00:45 0,5 C 64 % 1023,2 hPa 0,0 l/m 0,0 km/h (0 Bft) W-SW 256 0 min 0,000 mm 0,0 UV-I 0 W/m -5,5 C 0,5 C 0,0 km/h (0 Bft) 0,00 %
13.01.2015 01:00 0,4 C 63 % 1023,1 hPa 0,0 l/m 0,0 km/h (0 Bft) W-SW 240 0 min 0,000 mm 0,0 UV-I 0 W/m -5,8 C 0,4 C 0,0 km/h (0 Bft) 0,00 %
13.01.2015 01:15 0,5 C 64 % 1022,5 hPa 0,0 l/m 0,4 km/h (0 Bft) W-SW 256 0 min 0,000 mm 0,0 UV-I 0 W/m -5,5 C 0,5 C 4,0 km/h (1 Bft) 0,00 %
13.01.2015 01:30 0,1 C 67 % 1022,6 hPa 0,0 l/m 0,0 km/h (0 Bft) SW 216 0 min 0,000 mm 0,0 UV-I 0 W/m -5,3 C 0,1 C 0,0 km/h (0 Bft) 0,00 %
13.01.2015 01:45 -0,4 C 68 % 1022,8 hPa 0,0 l/m 0,4 km/h (0 Bft) S 184 0 min 0,000 mm 0,0 UV-I 0 W/m -5,6 C -0,4 C 4,0 km/h (1 Bft) 0,00 %
13.01.2015 02:00 0,7 C 59 % 1022,5 hPa 0,0 l/m 0,0 km/h (0 Bft) O-SO 105 0 min 0,000 mm 0,0 UV-I 0 W/m -6,4 C 0,7 C 0,0 km/h (0 Bft) 0,00 %
13.01.2015 02:15 1,0 C 59 % 1022,4 hPa 0,0 l/m 0,0 km/h (0 Bft) S 182 0 min 0,000 mm 0,0 UV-I 0 W/m -6,1 C 1,0 C 0,0 km/h (0 Bft) 0,00 %
13.01.2015 02:30 0,8 C 59 % 1022,5 hPa 0,0 l/m 0,0 km/h (0 Bft) S-SW 212 0 min 0,000 mm 0,0 UV-I 0 W/m -6,3 C 0,8 C 0,0 km/h (0 Bft) 0,00 %
13.01.2015 02:45 0,6 C 59 % 1022,4 hPa 0,0 l/m 0,0 km/h (0 Bft) S 183 0 min 0,000 mm 0,0 UV-I 0 W/m -6,5 C 0,6 C 0,0 km/h (0 Bft) 0,00 %
13.01.2015 03:00 0,6 C 58 % 1022,1 hPa 0,0 l/m 0,0 km/h (0 Bft) S-SW 210 0 min 0,000 mm 0,0 UV-I 0 W/m -6,7 C 0,6 C 0,0 km/h (0 Bft) 0,00 %
13.01.2015 03:15 0,3 C 61 % 1022,0 hPa 0,0 l/m 0,0 km/h (0 Bft) S 185 0 min 0,000 mm 0,0 UV-I 0 W/m -6,3 C 0,3 C 0,0 km/h (0 Bft) 0,00 %
13.01.2015 03:30 -0,6 C 71 % 1022,2 hPa 0,0 l/m 1,4 km/h (1 Bft) O-SO 111 0 min 0,000 mm 0,0 UV-I 0 W/m -5,2 C -0,6 C 4,0 km/h (1 Bft) 0,00 %
13.01.2015 03:45 -1,2 C 73 % 1022,3 hPa 0,0 l/m 0,0 km/h (0 Bft) S 180 0 min 0,000 mm 0,0 UV-I 0 W/m -5,4 C -1,2 C 0,0 km/h (0 Bft) 0,00 %
13.01.2015 04:00 -1,1 C 71 % 1022,0 hPa 0,0 l/m 0,0 km/h (0 Bft) S-SW 193 0 min 0,000 mm 0,0 UV-I 0 W/m -5,7 C -1,1 C 0,0 km/h (0 Bft) 0,00 %
13.01.2015 04:15 -1,0 C 71 % 1021,8 hPa 0,0 l/m 0,0 km/h (0 Bft) S-SW 192 0 min 0,000 mm 0,0 UV-I 0 W/m -5,6 C -1,0 C 0,0 km/h (0 Bft) 0,00 %
13.01.2015 04:30 -1,3 C 72 % 1022,0 hPa 0,0 l/m 0,0 km/h (0 Bft) SW 221 0 min 0,000 mm 0,0 UV-I 0 W/m -5,7 C -1,3 C 0,0 km/h (0 Bft) 0,00 %
13.01.2015 04:45 -1,6 C 71 % 1021,9 hPa 0,0 l/m 0,0 km/h (0 Bft) S-SW 195 0 min 0,000 mm 0,0 UV-I 0 W/m -6,2 C -1,6 C 0,0 km/h (0 Bft) 0,00 %
13.01.2015 05:00 -1,4 C 72 % 1021,6 hPa 0,0 l/m 0,0 km/h (0 Bft) SW 217 0 min 0,000 mm 0,0 UV-I 0 W/m -5,8 C -1,4 C 0,0 km/h (0 Bft) 0,00 %
13.01.2015 05:15 -1,9 C 73 % 1021,9 hPa 0,0 l/m 0,0 km/h (0 Bft) S 187 0 min 0,000 mm 0,0 UV-I 0 W/m -6,1 C -1,9 C 0,0 km/h (0 Bft) 0,00 %
13.01.2015 05:30 -1,7 C 73 % 1021,8 hPa 0,0 l/m 0,0 km/h (0 Bft) S-SW 207 0 min 0,000 mm 0,0 UV-I 0 W/m -5,9 C -1,7 C 0,0 km/h (0 Bft) 0,00 %
13.01.2015 05:45 -2,0 C 73 % 1021,6 hPa 0,0 l/m 0,0 km/h (0 Bft) S-SW 196 0 min 0,000 mm 0,0 UV-I 0 W/m -6,2 C -2,0 C 0,0 km/h (0 Bft) 0,00 %
13.01.2015 06:00 -2,0 C 74 % 1021,3 hPa 0,0 l/m 0,4 km/h (0 Bft) O-SO 108 0 min 0,000 mm 0,0 UV-I 0 W/m -6,0 C -2,0 C 4,0 km/h (1 Bft) 0,00 %
13.01.2015 06:15 -2,2 C 75 % 1021,3 hPa 0,0 l/m 0,0 km/h (0 Bft) W-SW 250 0 min 0,000 mm 0,0 UV-I 0 W/m -6,0 C -2,2 C 0,0 km/h (0 Bft) 0,00 %
13.01.2015 06:30 -2,6 C 71 % 1021,5 hPa 0,0 l/m 0,0 km/h (0 Bft) SW 214 0 min 0,000 mm 0,0 UV-I 0 W/m -7,1 C -2,6 C 0,0 km/h (0 Bft) 0,00 %
13.01.2015 06:45 -2,7 C 72 % 1021,2 hPa 0,0 l/m 0,0 km/h (0 Bft) SW 224 0 min 0,000 mm 0,0 UV-I 0 W/m -7,0 C -2,7 C 0,0 km/h (0 Bft) 0,00 %
13.01.2015 07:00 -2,5 C 72 % 1021,6 hPa 0,0 l/m 0,0 km/h (0 Bft) S-SW 194 0 min 0,000 mm 0,0 UV-I 0 W/m -6,8 C -2,5 C 0,0 km/h (0 Bft) 0,00 %
13.01.2015 07:15 -2,3 C 75 % 1021,1 hPa 0,0 l/m 0,0 km/h (0 Bft) S-SW 203 0 min 0,000 mm 0,0 UV-I 0 W/m -6,1 C -2,3 C 0,0 km/h (0 Bft) 0,00 %
13.01.2015 07:30 -2,5 C 70 % 1021,4 hPa 0,0 l/m 0,0 km/h (0 Bft) SW 217 0 min 0,000 mm 0,0 UV-I 0 W/m -7,2 C -2,5 C 0,0 km/h (0 Bft) 0,00 %
13.01.2015 07:45 -2,6 C 75 % 1021,2 hPa 0,0 l/m 0,0 km/h (0 Bft) SW 217 0 min 0,000 mm 0,0 UV-I 0 W/m -6,4 C -2,6 C 0,0 km/h (0 Bft) 0,00 %
13.01.2015 08:00 -2,7 C 70 % 1021,3 hPa 0,0 l/m 0,0 km/h (0 Bft) S-SW 208 0 min 0,000 mm 0,0 UV-I 0 W/m -7,4 C -2,7 C 0,0 km/h (0 Bft) 0,00 %
13.01.2015 08:15 -3,1 C 72 % 1021,6 hPa 0,0 l/m 0,0 km/h (0 Bft) S-SW 192 0 min 0,000 mm 0,0 UV-I 5 W/m -7,4 C -3,1 C 0,0 km/h (0 Bft) 0,00 %
13.01.2015 08:30 -2,9 C 73 % 1021,6 hPa 0,0 l/m 0,0 km/h (0 Bft) S-SW 194 0 min 0,000 mm 0,0 UV-I 16 W/m -7,0 C -2,9 C 0,0 km/h (0 Bft) 0,00 %
13.01.2015 08:45 -2,7 C 73 % 1021,7 hPa 0,0 l/m 0,0 km/h (0 Bft) SO 135 0 min 0,000 mm 1,0 UV-I 24 W/m -6,9 C -2,7 C 0,0 km/h (0 Bft) 0,00 %
13.01.2015 09:00 -1,9 C 74 % 1021,6 hPa 0,0 l/m 0,0 km/h (0 Bft) SW 219 0 min 0,000 mm 1,0 UV-I 40 W/m -5,9 C -1,9 C 0,0 km/h (0 Bft) 0,00 %
13.01.2015 09:15 -1,3 C 73 % 1021,5 hPa 0,0 l/m 0,0 km/h (0 Bft) S-SW 196 0 min 0,000 mm 1,0 UV-I 52 W/m -5,5 C -1,3 C 0,0 km/h (0 Bft) 0,00 %
13.01.2015 09:30 0,0 C 68 % 1021,1 hPa 0,0 l/m 0,0 km/h (0 Bft) S 174 0 min 0,000 mm 1,0 UV-I 57 W/m -5,2 C 0,0 C 0,0 km/h (0 Bft) 0,00 %
13.01.2015 09:45 0,7 C 64 % 1020,8 hPa 0,0 l/m 0,0 km/h (0 Bft) S 174 0 min 0,000 mm 1,0 UV-I 61 W/m -5,3 C 0,7 C 0,0 km/h (0 Bft) 0,00 %
13.01.2015 10:00 1,2 C 59 % 1021,0 hPa 0,0 l/m 0,0 km/h (0 Bft) S 178 0 min 0,000 mm 1,0 UV-I 63 W/m -5,9 C 1,2 C 0,0 km/h (0 Bft) 0,00 %
13.01.2015 10:15 2,2 C 57 % 1020,5 hPa 0,0 l/m 0,0 km/h (0 Bft) SO 132 0 min 0,000 mm 1,0 UV-I 65 W/m -5,4 C 2,2 C 0,0 km/h (0 Bft) 0,00 %
13.01.2015 10:30 2,5 C 61 % 1020,3 hPa 0,0 l/m 0,4 km/h (0 Bft) SO 134 0 min 0,000 mm 1,0 UV-I 63 W/m -4,2 C 2,5 C 4,0 km/h (1 Bft) 0,00 %
13.01.2015 10:45 2,5 C 64 % 1019,8 hPa 0,0 l/m 0,0 km/h (0 Bft) S-SW 207 0 min 0,000 mm 1,0 UV-I 63 W/m -3,6 C 2,5 C 0,0 km/h (0 Bft) 0,00 %
13.01.2015 11:00 2,5 C 62 % 1019,6 hPa 0,0 l/m 0,0 km/h (0 Bft) N 355 0 min 0,000 mm 1,0 UV-I 64 W/m -4,0 C 2,5 C 0,0 km/h (0 Bft) 0,00 %
13.01.2015 11:15 3,2 C 62 % 1019,2 hPa 0,0 l/m 0,4 km/h (0 Bft) O-SO 117 0 min 0,000 mm 1,0 UV-I 65 W/m -3,4 C 3,2 C 4,0 km/h (1 Bft) 0,00 %
13.01.2015 11:30 3,5 C 62 % 1019,1 hPa 0,0 l/m 0,0 km/h (0 Bft) O-NO 69 0 min 0,000 mm 1,0 UV-I 65 W/m -3,1 C 3,5 C 0,0 km/h (0 Bft) 0,00 %
13.01.2015 11:45 3,8 C 63 % 1018,8 hPa 0,0 l/m 0,0 km/h (0 Bft) SO 139 0 min 0,000 mm 1,0 UV-I 65 W/m -2,6 C 3,8 C 0,0 km/h (0 Bft) 0,00 %
13.01.2015 12:00 4,1 C 60 % 1018,6 hPa 0,0 l/m 0,4 km/h (0 Bft) S-SO 150 0 min 0,000 mm 1,0 UV-I 66 W/m -3,0 C 4,1 C 4,0 km/h (1 Bft) 0,00 %
13.01.2015 12:15 4,3 C 61 % 1018,2 hPa 0,0 l/m 0,0 km/h (0 Bft) S-SO 157 0 min 0,000 mm 1,0 UV-I 66 W/m -2,5 C 4,3 C 0,0 km/h (0 Bft) 0,00 %
13.01.2015 12:30 4,5 C 59 % 1018,0 hPa 0,0 l/m 0,7 km/h (0 Bft) S-SW 212 0 min 0,000 mm 1,0 UV-I 66 W/m -2,8 C 4,5 C 4,0 km/h (1 Bft) 0,00 %
13.01.2015 12:45 5,0 C 54 % 1017,7 hPa 0,0 l/m 0,0 km/h (0 Bft) SO 144 0 min 0,000 mm 1,0 UV-I 66 W/m -3,5 C 5,0 C 0,0 km/h (0 Bft) 0,00 %
13.01.2015 13:00 5,2 C 54 % 1017,4 hPa 0,0 l/m 0,4 km/h (0 Bft) N 355 0 min 0,000 mm 1,0 UV-I 67 W/m -3,3 C 5,2 C 4,0 km/h (1 Bft) 0,00 %
13.01.2015 13:15 5,6 C 57 % 1017,1 hPa 0,0 l/m 0,0 km/h (0 Bft) W-SW 254 0 min 0,000 mm 1,0 UV-I 67 W/m -2,2 C 5,6 C 0,0 km/h (0 Bft) 0,00 %
13.01.2015 13:30 5,8 C 58 % 1016,7 hPa 0,0 l/m 0,0 km/h (0 Bft) O 90 0 min 0,000 mm 1,0 UV-I 70 W/m -1,8 C 5,8 C 0,0 km/h (0 Bft) 0,00 %
13.01.2015 13:45 5,7 C 58 % 1016,5 hPa 0,0 l/m 0,4 km/h (0 Bft) N-NW 335 0 min 0,000 mm 1,0 UV-I 77 W/m -1,9 C 5,7 C 4,0 km/h (1 Bft) 0,00 %
13.01.2015 14:00 5,8 C 59 % 1016,3 hPa 0,0 l/m 0,7 km/h (0 Bft) O-SO 118 0 min 0,000 mm 1,0 UV-I 84 W/m -1,6 C 5,8 C 4,0 km/h (1 Bft) 0,00 %
13.01.2015 14:15 6,0 C 56 % 1016,3 hPa 0,0 l/m 0,4 km/h (0 Bft) O-NO 68 0 min 0,000 mm 1,0 UV-I 76 W/m -2,1 C 6,0 C 4,0 km/h (1 Bft) 0,00 %
13.01.2015 14:30 6,2 C 56 % 1015,9 hPa 0,0 l/m 0,0 km/h (0 Bft) O-SO 120 0 min 0,000 mm 1,0 UV-I 63 W/m -1,9 C 6,2 C 0,0 km/h (0 Bft) 0,00 %
13.01.2015 14:45 6,1 C 56 % 1015,8 hPa 0,0 l/m 0,7 km/h (0 Bft) O-SO 122 0 min 0,000 mm 1,0 UV-I 58 W/m -2,0 C 6,1 C 4,0 km/h (1 Bft) 0,00 %
13.01.2015 15:00 6,2 C 54 % 1015,6 hPa 0,0 l/m 0,0 km/h (0 Bft) N 350 0 min 0,000 mm 1,0 UV-I 55 W/m -2,4 C 6,2 C 0,0 km/h (0 Bft) 0,00 %
13.01.2015 15:15 6,1 C 56 % 1015,6 hPa 0,0 l/m 0,0 km/h (0 Bft) N-NO 31 0 min 0,000 mm 1,0 UV-I 50 W/m -2,0 C 6,1 C 0,0 km/h (0 Bft) 0,00 %
13.01.2015 15:30 5,8 C 56 % 1015,5 hPa 0,0 l/m 0,0 km/h (0 Bft) O-SO 117 0 min 0,000 mm 1,0 UV-I 44 W/m -2,3 C 5,8 C 0,0 km/h (0 Bft) 0,00 %
13.01.2015 15:45 5,6 C 51 % 1015,6 hPa 0,0 l/m 4,3 km/h (1 Bft) O-SO 107 0 min 0,000 mm 0,0 UV-I 39 W/m -3,7 C 5,6 C 7,9 km/h (2 Bft) 0,00 %
13.01.2015 16:00 5,6 C 52 % 1015,7 hPa 0,0 l/m 0,0 km/h (0 Bft) S 187 0 min 0,000 mm 0,0 UV-I 29 W/m -3,5 C 5,6 C 0,0 km/h (0 Bft) 0,00 %
13.01.2015 16:15 5,1 C 52 % 1015,6 hPa 0,0 l/m 0,0 km/h (0 Bft) S-SW 210 0 min 0,000 mm 0,0 UV-I 16 W/m -3,9 C 5,1 C 0,0 km/h (0 Bft) 0,00 %
13.01.2015 16:30 4,3 C 55 % 1015,5 hPa 0,0 l/m 0,0 km/h (0 Bft) S 188 0 min 0,000 mm 0,0 UV-I 0 W/m -3,9 C 4,3 C 0,0 km/h (0 Bft) 0,00 %
13.01.2015 16:45 3,5 C 60 % 1015,6 hPa 0,0 l/m 0,0 km/h (0 Bft) S-SW 202 0 min 0,000 mm 0,0 UV-I 0 W/m -3,5 C 3,5 C 0,0 km/h (0 Bft) 0,00 %
13.01.2015 17:00 2,9 C 62 % 1015,5 hPa 0,0 l/m 0,0 km/h (0 Bft) S-SW 211 0 min 0,000 mm 0,0 UV-I 0 W/m -3,6 C 2,9 C 0,0 km/h (0 Bft) 0,00 %
13.01.2015 17:15 2,5 C 58 % 1015,9 hPa 0,0 l/m 0,0 km/h (0 Bft) S-SW 211 0 min 0,000 mm 0,0 UV-I 0 W/m -4,9 C 2,5 C 0,0 km/h (0 Bft) 0,00 %
13.01.2015 17:30 2,0 C 60 % 1015,8 hPa 0,0 l/m 0,0 km/h (0 Bft) S-SW 198 0 min 0,000 mm 0,0 UV-I 0 W/m -4,9 C 2,0 C 0,0 km/h (0 Bft) 0,00 %
13.01.2015 17:45 1,7 C 61 % 1015,7 hPa 0,0 l/m 0,0 km/h (0 Bft) S-SW 213 0 min 0,000 mm 0,0 UV-I 0 W/m -5,0 C 1,7 C 0,0 km/h (0 Bft) 0,00 %
13.01.2015 18:00 1,5 C 63 % 1015,5 hPa 0,0 l/m 0,0 km/h (0 Bft) S-SW 206 0 min 0,000 mm 0,0 UV-I 0 W/m -4,8 C 1,5 C 0,0 km/h (0 Bft) 0,00 %
13.01.2015 18:15 1,2 C 64 % 1015,6 hPa 0,0 l/m 0,0 km/h (0 Bft) W-SW 250 0 min 0,000 mm 0,0 UV-I 0 W/m -4,8 C 1,2 C 0,0 km/h (0 Bft) 0,00 %
13.01.2015 18:30 0,3 C 69 % 1015,7 hPa 0,0 l/m 0,0 km/h (0 Bft) S 171 0 min 0,000 mm 0,0 UV-I 0 W/m -4,7 C 0,3 C 0,0 km/h (0 Bft) 0,00 %
13.01.2015 18:45 0,3 C 70 % 1015,7 hPa 0,0 l/m 0,0 km/h (0 Bft) S-SW 206 0 min 0,000 mm 0,0 UV-I 0 W/m -4,5 C 0,3 C 0,0 km/h (0 Bft) 0,00 %
13.01.2015 19:00 0,0 C 71 % 1015,7 hPa 0,0 l/m 0,0 km/h (0 Bft) S-SW 211 0 min 0,000 mm 0,0 UV-I 0 W/m -4,6 C 0,0 C 0,0 km/h (0 Bft) 0,00 %
13.01.2015 19:15 -0,2 C 72 % 1015,7 hPa 0,0 l/m 0,0 km/h (0 Bft) S-SW 205 0 min 0,000 mm 0,0 UV-I 0 W/m -4,6 C -0,2 C 0,0 km/h (0 Bft) 0,00 %
13.01.2015 19:30 -0,2 C 73 % 1015,4 hPa 0,0 l/m 0,0 km/h (0 Bft) S-SW 207 0 min 0,000 mm 0,0 UV-I 0 W/m -4,4 C -0,2 C 0,0 km/h (0 Bft) 0,00 %
13.01.2015 19:45 -0,4 C 74 % 1015,8 hPa 0,0 l/m 0,0 km/h (0 Bft) SW 214 0 min 0,000 mm 0,0 UV-I 0 W/m -4,5 C -0,4 C 0,0 km/h (0 Bft) 0,00 %
13.01.2015 20:00 0,0 C 73 % 1015,3 hPa 0,0 l/m 0,0 km/h (0 Bft) S-SW 198 0 min 0,000 mm 0,0 UV-I 0 W/m -4,2 C 0,0 C 0,0 km/h (0 Bft) 0,00 %
13.01.2015 20:15 -0,4 C 74 % 1015,6 hPa 0,0 l/m 0,0 km/h (0 Bft) S 173 0 min 0,000 mm 0,0 UV-I 0 W/m -4,5 C -0,4 C 0,0 km/h (0 Bft) 0,00 %
13.01.2015 20:30 -0,9 C 77 % 1015,6 hPa 0,0 l/m 0,0 km/h (0 Bft) S 189 0 min 0,000 mm 0,0 UV-I 0 W/m -4,4 C -0,9 C 0,0 km/h (0 Bft) 0,00 %
13.01.2015 20:45 -0,7 C 77 % 1015,5 hPa 0,0 l/m 0,0 km/h (0 Bft) SO 140 0 min 0,000 mm 0,0 UV-I 0 W/m -4,2 C -0,7 C 0,0 km/h (0 Bft) 0,00 %
13.01.2015 21:00 -0,7 C 77 % 1015,8 hPa 0,0 l/m 0,0 km/h (0 Bft) SW 221 0 min 0,000 mm 0,0 UV-I 0 W/m -4,2 C -0,7 C 0,0 km/h (0 Bft) 0,00 %
13.01.2015 21:15 -0,7 C 75 % 1015,8 hPa 0,0 l/m 0,0 km/h (0 Bft) S 186 0 min 0,000 mm 0,0 UV-I 0 W/m -4,6 C -0,7 C 0,0 km/h (0 Bft) 0,00 %
13.01.2015 21:30 -0,8 C 75 % 1015,7 hPa 0,0 l/m 0,0 km/h (0 Bft) S 190 0 min 0,000 mm 0,0 UV-I 0 W/m -4,7 C -0,8 C 0,0 km/h (0 Bft) 0,00 %
13.01.2015 21:45 -0,8 C 74 % 1015,6 hPa 0,0 l/m 0,0 km/h (0 Bft) S 173 0 min 0,000 mm 0,0 UV-I 0 W/m -4,8 C -0,8 C 0,0 km/h (0 Bft) 0,00 %
13.01.2015 22:00 -1,0 C 74 % 1015,3 hPa 0,0 l/m 0,0 km/h (0 Bft) S-SW 204 0 min 0,000 mm 0,0 UV-I 0 W/m -5,0 C -1,0 C 0,0 km/h (0 Bft) 0,00 %
13.01.2015 22:15 -1,0 C 74 % 1015,3 hPa 0,0 l/m 0,0 km/h (0 Bft) S 189 0 min 0,000 mm 0,0 UV-I 0 W/m -5,0 C -1,0 C 0,0 km/h (0 Bft) 0,00 %
13.01.2015 22:30 -1,2 C 74 % 1015,1 hPa 0,0 l/m 0,0 km/h (0 Bft) S 188 0 min 0,000 mm 0,0 UV-I 0 W/m -5,2 C -1,2 C 0,0 km/h (0 Bft) 0,00 %
13.01.2015 22:45 -1,0 C 73 % 1015,3 hPa 0,0 l/m 0,0 km/h (0 Bft) S 179 0 min 0,000 mm 0,0 UV-I 0 W/m -5,2 C -1,0 C 0,0 km/h (0 Bft) 0,00 %
13.01.2015 23:00 -1,2 C 72 % 1015,4 hPa 0,0 l/m 0,0 km/h (0 Bft) S-SW 212 0 min 0,000 mm 0,0 UV-I 0 W/m -5,6 C -1,2 C 0,0 km/h (0 Bft) 0,00 %
13.01.2015 23:15 -1,3 C 71 % 1015,2 hPa 0,0 l/m 0,0 km/h (0 Bft) SW 220 0 min 0,000 mm 0,0 UV-I 0 W/m -5,9 C -1,3 C 0,0 km/h (0 Bft) 0,00 %
13.01.2015 23:30 -1,2 C 72 % 1015,2 hPa 0,0 l/m 0,0 km/h (0 Bft) S-SW 207 0 min 0,000 mm 0,0 UV-I 0 W/m -5,6 C -1,2 C 0,0 km/h (0 Bft) 0,00 %
13.01.2015 23:45 -1,4 C 72 % 1014,8 hPa 0,0 l/m 0,0 km/h (0 Bft) S-SW 202 0 min 0,000 mm 0,0 UV-I 0 W/m -5,8 C -1,4 C 0,0 km/h (0 Bft) 0,00 %
_ Min-Zeit 08:15 15:45 23:45 - 00:00 - - - - - - 08:15 08:15 00:00 00:00
Minimum _ -3,1 C 51 % 1014,8 hPa - 0,0 km/h (0 Bft) - - - - - - -7,4 C -3,1 C 0,0 km/h (0 Bft) 0,00 %
_ Max-Zeit 14:30 20:30 00:30 00:00 15:45 - - 00:00 00:00 08:45 14:00 14:00 14:30 15:45 00:00
Maximum _ 6,2 C 77 % 1023,2 hPa 0,0 l/m 4,3 km/h
O-SO (1 Bft)
- - 0 min 0,000 mm 1,0 UV-I 84 W/m -1,6 C 6,2 C 7,9 km/h
O-SO (2 Bft)
0,00 %
Durchschnitt _ 0,9 C 66 % 1018,7 hPa #0,0 l/m 0,1 km/h (0 Bft) O-SO - #0 min. #0,000 mm 1,0 UV-I 55 W/m -4,8 C 0,9 C 0,7 km/h (0 Bft) 0,00 %